SCP
0 0 0 0 0 0 0 0 0 0 0 0 0 0 0 0 0 0 -0 -0 -0 -0 -0 -0 -0 -0 -0 -0 -0 -0 -0 -0 -0 0 0 0 0 0 0 -0 -0 0 0 0
0 0 0 0 0 0 0 0 0 0 0 0 0 0 0 0 0 0 -0 -0 -0 -0 -0 -0 -0 -0 -0 -0 -0 -0 -0 -0 -0 0 0 0 0 0 0 0 0 -0 -0 0
0 0 0 0 0 0 0 0 0 0 0 0 0 0 0 0 0 0 0 -0 -0 -0 -0 -0 -0 -0 -0 -0 -0 -0 -0 -0 0 0 0 0 0 0 0 0 0 -0 0 -0
0 0 0 0 0 0 0 0 0 0 0 0 0 0 0 0 0 0 -0 0 -0 -0 -0 -0 -0 -0 -0 -0 -0 -0 -0 -0 -0 0 0 0 0 0 0 0 0 0 0 0
0 0 0 0 0 0 0 0 0 0 0 0 0 0 0 0 0 0 0 0 0 -0 -0 -0 -0 -0 -0 -0 -0 -0 -0 -0 -0 0 0 0 0 0 0 0 0 0 -0 0
0 0 0 0 0 0 0 0 0 0 0 0 0 0 0 0 0 0 0 0 0 -0 -0 -0 -0 -0 -0 -0 -0 -0 -0 -0 -0 -0 0 0 0 0 0 0 0 0 0 -0
0 0 0 0 0 0 0 0 0 0 0 0 0 0 0 0 0 0 0 0 0 -0 -0 -0 -0 -0 -0 -0 -0 -0 -0 -0 -0 -0 -0 0 0 0 0 0 0 0 0 0
0 0 0 0 0 0 0 0 0 0 0 0 0 0 0 0 0 0 0 0 -0 -0 -0 -0 -0 -0 -0 -0 -0 -0 -0 -0 -0 -0 0 0 0 0 0 0 0 0 0 0
0 0 0 0 0 0 0 0 0 0 0 0 0 0 0 0 0 0 0 0 0 -0 -0 -0 -0 -0 -0 -0 -0 -0 -0 -0 -0 -0 -0 0 0 0 0 0 0 0 0 0
0 0 0 0 0 0 0 0 0 0 0 0 0 0 0 0 0 0 0 0 0 -0 -0 -0 -0 -0 -0 -0 -0 -0 -0 -0 -0 -0 -0 -0 0 0 0 0 0 0 0 0
0 0 0 0 0 0 0 0 0 0 0 0 0 0 0 0 0 0 0 0 0 -0 -0 -0 -0 -0 -0 -0 -0 -0 -0 -0 -0 -0 -0 -0 -0 0 0 0 0 0 0 0
0 0 0 0 0 0 0 0 0 0 0 0 0 0 0 0 0 0 0 0 0 0 0 -0 -0 -0 -0 -0 -0 -0 -0 -0 -0 -0 -0 -0 -0 0 0 0 -0 -0 0 -0
0 0 0 0 0 0 0 0 0 0 0 0 0 0 0 0 1 0 0 0 0 0 -0 -0 -0 -0 -0 -0 -0 -0 -0 -0 -0 -0 -0 -0 -0 0 -0 0 0 -0 -0 -0
0 0 0 0 0 0 0 0 0 0 0 0 0 0 0 0 1 0 0 0 0 0 0 0 0 -0 -0 -0 -0 -0 -0 -0 0 -0 -0 -0 -0 0 -0 -0 -0 0 -0 -0
0 0 0 0 0 0 0 0 0 0 0 0 0 0 0 0 1 1 0 0 0 0 0 0 0 0 -0 -0 -0 -0 -0 0 0 0 0 0 0 0 0 0 -0 -0 -0 0
0 0 0 0 0 0 0 0 0 0 0 0 0 0 0 0 0 1 1 0 0 0 0 0 0 0 0 -0 -0 0 0 0 0 0 0 0 0 0 0 0 0 0 0 0
0 0 0 0 0 0 0 0 0 0 0 0 0 0 0 0 0 0 1 1 0 0 0 0 0 0 0 0 0 0 0 0 0 0 0 0 0 0 0 0 0 0 0 0
0 0 0 0 0 0 0 0 0 0 0 0 0 0 0 0 0 0 1 1 1 0 0 0 0 0 0 0 0 0 0 0 0 0 0 0 0 0 0 0 0 0 0 0
-0 0 0 0 0 0 0 0 0 0 0 0 0 0 0 0 0 0 0 1 1 1 1 1 0 0 0 0 0 0 0 0 0 0 0 0 0 0 0 0 0 0 0 0
0 0 0 0 0 0 0 0 0 0 0 0 0 0 0 0 0 0 0 0 1 1 0 1 0 0 0 0 0 0 0 0 0 0 0 0 0 0 0 0 0 0 0 0
0 -0 0 0 0 0 0 0 0 0 0 0 0 0 0 0 0 0 0 0 0 0 0 0 0 0 0 0 0 0 0 0 0 0 0 0 0 0 0 0 0 0 0 0
-0 0 0 0 0 0 0 0 0 0 0 0 0 0 0 0 0 0 0 0 0 0 0 1 1 0 0 0 0 0 0 0 0 0 0 0 0 0 0 0 0 0 0 0
-0 0 0 0 0 0 0 0 0 0 0 0 0 0 0 0 0 0 0 0 0 0 0 1 0 0 0 0 0 0 0 0 0 0 0 0 0 0 0 0 0 0 0 0
0 0 0 0 0 0 0 0 0 0 0 0 0 0 0 0 0 0 0 0 0 0 0 0 0 0 0 0 1 0 0 0 0 0 0 0 0 0 0 0 0 0 0 0
0 0 0 0 -0 0 0 0 0 0 0 0 0 0 0 0 0 0 0 0 0 0 0 0 0 0 1 2 2 1 0 0 0 1 0 0 0 0 0 0 0 0 0 0
-0 -0 -0 0 -0 -0 -0 0 0 0 0 0 0 0 0 0 0 0 0 0 0 0 0 0 0 0 1 1 1 1 1 0 0 0 0 0 0 0 0 0 0 0 0 0
-0 -0 -0 -0 -0 -0 -0 -0 0 0 0 0 0 0 0 0 0 0 0 0 0 0 0 0 0 0 0 0 0 1 0 0 0 0 0 0 0 0 0 0 0 0 0 0
Wind_Speed_500mb
38 17 14 26 49 50 49 44 33 24 31 30 17 18 16 8 31 41 47 52 55 56 53 48 43 39 35 32 31 28 24 22 18 14 11 13 12 10 13 15 15 18 22 20
40 30 22 15 21 45 48 44 39 30 34 28 36 37 21 7 26 43 46 49 53 54 54 51 46 43 39 35 34 30 25 24 21 18 13 12 11 10 14 17 19 19 20 21
38 39 19 23 29 31 38 44 39 38 40 29 30 17 20 15 16 40 49 53 56 59 57 53 47 46 43 37 36 32 28 25 24 21 17 12 10 10 12 19 19 20 23 23
16 32 25 14 16 26 26 35 38 39 31 33 23 21 20 20 3 30 45 50 50 54 55 53 46 46 43 39 38 35 30 27 26 24 20 15 12 12 12 20 15 14 23 26
10 24 19 15 19 8 24 18 10 13 17 26 30 33 32 27 22 21 41 43 44 50 56 55 51 48 46 43 40 38 35 30 28 28 24 19 16 12 13 15 13 17 23 32
8 20 37 19 17 11 11 17 15 12 9 11 14 22 16 26 29 9 23 47 45 48 54 56 55 51 50 47 44 43 39 34 30 30 27 22 19 14 14 12 13 11 20 34
11 12 11 23 20 6 22 8 19 18 18 18 17 23 50 41 28 17 12 32 42 53 62 62 60 56 52 49 46 43 40 37 33 32 29 25 21 17 17 15 14 17 30 40
7 8 10 36 6 9 14 15 19 22 24 28 34 38 38 40 34 26 15 33 49 55 60 62 64 60 55 52 46 43 42 40 36 34 31 28 25 21 20 19 18 20 29 31
4 7 6 16 24 20 19 20 23 28 32 34 40 40 36 35 30 24 21 30 46 49 55 62 66 64 59 53 51 48 45 44 40 36 36 32 30 27 23 22 19 20 21 24
10 14 15 14 15 23 29 25 30 30 34 37 39 40 40 35 27 23 24 34 49 54 57 63 67 66 58 55 54 52 49 47 44 41 38 37 34 30 26 24 24 23 23 24
9 12 13 11 19 32 37 33 34 33 35 38 39 41 37 35 28 22 27 36 48 58 62 65 69 67 61 58 58 56 51 48 47 44 43 39 38 35 32 28 25 25 25 24
5 28 15 25 38 40 45 38 40 41 43 39 37 42 43 38 29 22 26 37 46 55 56 59 65 70 66 63 64 62 57 53 50 47 46 41 42 38 43 35 37 36 34 27
19 41 42 41 43 41 25 42 41 43 38 40 40 41 41 39 29 24 25 38 48 57 62 61 67 72 72 69 69 67 66 59 52 50 46 47 44 43 40 49 41 39 33 35
41 47 51 40 27 42 42 44 43 40 31 32 38 38 40 38 28 19 24 35 42 45 54 59 64 72 77 73 71 69 67 63 56 55 49 48 46 45 42 41 45 46 47 43
34 33 44 50 51 52 44 38 42 36 31 31 36 40 43 43 34 24 14 25 34 41 47 54 62 66 69 74 73 72 70 65 59 51 49 50 47 44 43 42 42 42 41 53
46 42 43 47 47 47 44 37 36 33 32 32 36 40 42 41 36 28 16 14 31 39 45 55 63 67 71 72 74 69 69 70 70 55 52 52 51 49 47 45 43 45 47 46
36 27 31 41 41 40 39 33 33 35 34 33 33 38 39 40 37 36 24 9 15 24 31 43 49 55 65 70 79 69 68 70 74 60 56 55 54 54 52 50 49 47 46 47
46 42 38 37 40 36 38 35 32 32 32 32 31 32 33 36 39 40 36 25 7 15 22 31 39 48 59 65 69 62 64 66 78 70 59 57 57 55 56 56 54 52 49 46
45 54 43 38 34 33 31 32 30 29 28 28 29 27 30 29 32 38 37 28 22 2 8 16 32 49 52 60 66 60 60 64 66 70 65 61 60 56 56 59 58 56 54 52
56 55 45 38 24 18 20 22 23 23 23 24 25 25 26 25 28 32 33 26 22 13 10 13 25 34 43 51 70 58 58 62 62 68 70 65 63 63 59 59 56 56 57 58
55 58 45 39 23 11 9 12 15 17 18 20 23 26 27 27 24 26 28 26 23 25 15 19 10 19 31 41 56 60 56 57 59 60 67 73 65 65 64 61 61 60 58 58
54 58 52 43 32 25 14 11 11 15 18 22 23 22 26 27 23 21 22 22 28 26 23 14 9 16 28 38 39 53 57 54 54 53 58 62 66 64 65 65 65 62 63 62
42 51 53 47 37 30 27 26 25 22 19 17 17 20 21 20 21 21 19 22 29 29 22 19 16 11 17 38 33 40 53 53 50 48 47 50 51 54 56 61 62 62 60 62
43 42 49 55 48 43 38 37 32 26 26 23 18 17 15 16 18 15 18 20 22 24 26 20 19 17 15 18 29 36 48 49 45 44 44 46 44 41 45 45 51 54 57 61
37 38 44 47 52 58 47 36 33 34 30 25 23 19 20 17 19 23 24 23 26 24 23 27 21 16 13 11 19 29 39 45 43 43 39 38 32 26 25 31 39 45 50 51
37 38 37 38 39 43 47 46 39 39 38 36 28 29 28 25 23 25 23 23 23 26 23 22 25 22 18 11 14 26 33 46 53 52 45 41 33 32 36 30 26 41 49 46
29 34 35 38 39 41 41 44 42 41 40 46 41 38 35 35 34 33 31 24 23 26 25 23 26 28 24 29 24 18 28 46 57 57 68 74 64 69 79 45 47 54 46 47
Wind_Direction_500mb
251 289 296 280 210 211 207 218 226 199 220 226 214 112 66 112 165 168 168 167 171 171 173 175 174 178 181 181 179 177 173 171 171 158 142 127 109 111 132 126 139 139 154 147
246 231 246 249 247 215 214 214 224 241 227 243 268 289 294 179 189 183 177 176 176 174 175 177 177 180 182 182 181 178 175 175 174 173 170 156 134 110 126 141 131 141 147 154
236 215 222 246 216 219 220 216 216 221 237 248 246 268 242 243 207 202 188 181 180 179 179 179 179 181 183 180 179 178 177 177 176 176 176 165 160 144 139 137 142 141 150 157
232 197 212 94 44 208 207 215 217 231 239 235 240 270 264 262 252 204 197 189 185 181 181 180 177 181 181 179 179 178 179 180 179 176 177 173 157 155 134 147 143 160 168 162
223 204 199 113 34 348 187 113 16 310 293 291 290 309 280 265 261 228 209 199 192 188 180 177 176 181 181 179 180 181 183 183 182 177 175 174 165 156 147 145 145 140 167 173
267 203 212 53 2 322 283 167 23 345 326 323 308 246 228 20 12 295 221 195 190 185 182 179 177 179 182 181 181 184 186 183 182 179 178 176 171 160 151 141 130 129 161 167
244 258 83 355 335 226 211 77 350 344 334 316 281 279 312 319 318 315 271 206 194 184 183 181 178 178 183 185 185 185 184 182 182 180 180 180 176 167 156 137 131 118 124 147
226 254 191 359 31 317 22 346 349 342 333 318 300 300 298 300 296 285 274 205 197 189 184 182 181 181 184 188 184 183 183 183 183 182 179 183 182 172 161 154 135 134 136 152
328 39 23 7 62 42 10 345 350 338 334 324 312 311 308 299 290 272 240 210 197 194 190 182 184 185 186 187 183 182 184 184 185 183 182 186 184 179 171 164 158 146 144 147
287 47 351 319 26 8 0 346 340 338 332 330 320 318 312 304 292 272 227 206 195 191 197 187 187 188 189 184 182 184 184 184 186 186 185 188 188 190 185 180 178 170 164 162
294 19 358 305 291 326 332 331 336 336 337 334 327 324 318 306 291 271 223 203 195 195 197 198 187 187 186 185 182 184 186 186 187 189 189 192 190 195 194 196 187 185 180 174
330 325 319 292 303 310 318 322 329 331 333 335 334 330 327 316 300 274 225 206 201 198 199 200 195 186 186 187 185 184 185 188 191 190 193 195 195 200 198 199 202 187 188 178
300 306 298 295 299 300 306 316 320 322 324 329 337 338 336 326 313 282 234 213 208 204 201 198 197 191 188 189 189 189 186 189 192 190 196 195 197 200 202 206 208 203 198 190
311 299 291 287 302 297 303 307 312 313 315 330 336 343 345 340 330 306 243 220 215 211 204 198 198 199 192 190 192 192 193 194 189 190 197 197 199 200 200 203 204 206 203 200
292 290 287 288 289 288 292 295 303 306 315 330 338 345 350 351 346 334 282 223 212 207 203 201 201 200 197 193 194 193 194 196 194 195 199 198 199 199 199 201 203 205 205 206
298 293 282 281 283 284 284 284 289 298 308 323 334 342 348 352 356 350 340 230 212 207 204 202 201 198 196 194 195 195 197 199 195 197 199 200 201 200 200 200 201 202 206 210
324 318 295 282 282 281 279 278 282 287 297 309 323 335 345 352 360 7 4 339 219 214 211 210 209 202 200 194 197 195 196 201 202 198 200 203 203 205 204 204 205 206 209 209
343 336 313 293 277 280 276 273 275 281 286 298 311 326 339 348 352 357 1 1 329 221 217 213 207 201 204 200 198 194 194 197 202 200 203 205 206 207 208 209 210 211 211 214
347 347 335 321 293 274 271 263 269 277 283 293 302 316 326 337 345 353 358 8 22 81 204 213 213 200 205 204 203 195 198 196 201 200 205 207 207 208 210 212 213 213 213 212
348 350 347 340 321 283 266 255 267 276 284 291 299 309 313 325 338 347 355 5 14 357 335 262 224 209 207 209 212 199 204 202 204 201 203 207 208 209 212 214 216 216 216 216
350 356 354 353 354 338 281 266 276 279 289 293 301 307 308 311 321 332 345 348 350 344 350 360 241 216 213 212 220 205 208 206 207 207 206 206 209 211 213 216 218 218 220 221
4 7 7 3 7 21 23 20 324 317 309 296 286 297 309 306 306 310 335 338 342 345 352 351 347 221 204 218 217 211 210 213 211 211 212 213 210 212 213 215 218 221 222 224
11 13 11 11 7 8 21 21 11 349 340 317 305 303 296 290 299 299 307 329 349 349 347 346 334 309 234 219 219 215 209 214 212 209 211 215 218 220 223 217 221 221 224 225
10 10 11 14 17 17 14 6 10 3 354 350 339 330 323 314 303 291 297 313 317 341 350 328 333 329 299 226 223 217 209 213 213 208 203 207 214 214 218 229 230 226 225 225
359 11 18 12 14 17 27 24 11 5 1 1 353 340 339 334 314 295 297 305 307 306 322 337 327 316 330 287 225 211 206 202 199 192 190 185 189 208 222 233 241 241 235 226
360 5 12 18 18 18 14 10 13 10 5 358 349 344 340 326 307 309 300 295 297 297 306 310 317 304 283 298 249 224 213 214 205 200 208 230 234 257 266 247 260 258 245 235
1 4 10 14 19 19 19 17 18 12 10 7 353 344 335 324 315 307 301 297 285 283 287 292 300 303 285 256 252 246 241 234 234 236 231 234 231 228 234 253 278 256 251 240
Wind_Speed_850mb
38 17 14 26 49 50 49 44 33 24 31 30 17 18 16 8 31 41 47 52 55 56 53 48 43 39 35 32 31 28 24 22 18 14 11 13 12 10 13 15 15 18 22 20
40 30 22 15 21 45 48 44 39 30 34 28 36 37 21 7 26 43 46 49 53 54 54 51 46 43 39 35 34 30 25 24 21 18 13 12 11 10 14 17 19 19 20 21
38 39 19 23 29 31 38 44 39 38 40 29 30 17 20 15 16 40 49 53 56 59 57 53 47 46 43 37 36 32 28 25 24 21 17 12 10 10 12 19 19 20 23 23
16 32 25 14 16 26 26 35 38 39 31 33 23 21 20 20 3 30 45 50 50 54 55 53 46 46 43 39 38 35 30 27 26 24 20 15 12 12 12 20 15 14 23 26
10 24 19 15 19 8 24 18 10 13 17 26 30 33 32 27 22 21 41 43 44 50 56 55 51 48 46 43 40 38 35 30 28 28 24 19 16 12 13 15 13 17 23 32
8 20 37 19 17 11 11 17 15 12 9 11 14 22 16 26 29 9 23 47 45 48 54 56 55 51 50 47 44 43 39 34 30 30 27 22 19 14 14 12 13 11 20 34
11 12 11 23 20 6 22 8 19 18 18 18 17 23 50 41 28 17 12 32 42 53 62 62 60 56 52 49 46 43 40 37 33 32 29 25 21 17 17 15 14 17 30 40
7 8 10 36 6 9 14 15 19 22 24 28 34 38 38 40 34 26 15 33 49 55 60 62 64 60 55 52 46 43 42 40 36 34 31 28 25 21 20 19 18 20 29 31
4 7 6 16 24 20 19 20 23 28 32 34 40 40 36 35 30 24 21 30 46 49 55 62 66 64 59 53 51 48 45 44 40 36 36 32 30 27 23 22 19 20 21 24
10 14 15 14 15 23 29 25 30 30 34 37 39 40 40 35 27 23 24 34 49 54 57 63 67 66 58 55 54 52 49 47 44 41 38 37 34 30 26 24 24 23 23 24
9 12 13 11 19 32 37 33 34 33 35 38 39 41 37 35 28 22 27 36 48 58 62 65 69 67 61 58 58 56 51 48 47 44 43 39 38 35 32 28 25 25 25 24
5 28 15 25 38 40 45 38 40 41 43 39 37 42 43 38 29 22 26 37 46 55 56 59 65 70 66 63 64 62 57 53 50 47 46 41 42 38 43 35 37 36 34 27
19 41 42 41 43 41 25 42 41 43 38 40 40 41 41 39 29 24 25 38 48 57 62 61 67 72 72 69 69 67 66 59 52 50 46 47 44 43 40 49 41 39 33 35
41 47 51 40 27 42 42 44 43 40 31 32 38 38 40 38 28 19 24 35 42 45 54 59 64 72 77 73 71 69 67 63 56 55 49 48 46 45 42 41 45 46 47 43
34 33 44 50 51 52 44 38 42 36 31 31 36 40 43 43 34 24 14 25 34 41 47 54 62 66 69 74 73 72 70 65 59 51 49 50 47 44 43 42 42 42 41 53
46 42 43 47 47 47 44 37 36 33 32 32 36 40 42 41 36 28 16 14 31 39 45 55 63 67 71 72 74 69 69 70 70 55 52 52 51 49 47 45 43 45 47 46
36 27 31 41 41 40 39 33 33 35 34 33 33 38 39 40 37 36 24 9 15 24 31 43 49 55 65 70 79 69 68 70 74 60 56 55 54 54 52 50 49 47 46 47
46 42 38 37 40 36 38 35 32 32 32 32 31 32 33 36 39 40 36 25 7 15 22 31 39 48 59 65 69 62 64 66 78 70 59 57 57 55 56 56 54 52 49 46
45 54 43 38 34 33 31 32 30 29 28 28 29 27 30 29 32 38 37 28 22 2 8 16 32 49 52 60 66 60 60 64 66 70 65 61 60 56 56 59 58 56 54 52
56 55 45 38 24 18 20 22 23 23 23 24 25 25 26 25 28 32 33 26 22 13 10 13 25 34 43 51 70 58 58 62 62 68 70 65 63 63 59 59 56 56 57 58
55 58 45 39 23 11 9 12 15 17 18 20 23 26 27 27 24 26 28 26 23 25 15 19 10 19 31 41 56 60 56 57 59 60 67 73 65 65 64 61 61 60 58 58
54 58 52 43 32 25 14 11 11 15 18 22 23 22 26 27 23 21 22 22 28 26 23 14 9 16 28 38 39 53 57 54 54 53 58 62 66 64 65 65 65 62 63 62
42 51 53 47 37 30 27 26 25 22 19 17 17 20 21 20 21 21 19 22 29 29 22 19 16 11 17 38 33 40 53 53 50 48 47 50 51 54 56 61 62 62 60 62
43 42 49 55 48 43 38 37 32 26 26 23 18 17 15 16 18 15 18 20 22 24 26 20 19 17 15 18 29 36 48 49 45 44 44 46 44 41 45 45 51 54 57 61
37 38 44 47 52 58 47 36 33 34 30 25 23 19 20 17 19 23 24 23 26 24 23 27 21 16 13 11 19 29 39 45 43 43 39 38 32 26 25 31 39 45 50 51
37 38 37 38 39 43 47 46 39 39 38 36 28 29 28 25 23 25 23 23 23 26 23 22 25 22 18 11 14 26 33 46 53 52 45 41 33 32 36 30 26 41 49 46
29 34 35 38 39 41 41 44 42 41 40 46 41 38 35 35 34 33 31 24 23 26 25 23 26 28 24 29 24 18 28 46 57 57 68 74 64 69 79 45 47 54 46 47
Wind_Direction_850mb
251 289 296 280 210 211 207 218 226 199 220 226 214 112 66 112 165 168 168 167 171 171 173 175 174 178 181 181 179 177 173 171 171 158 142 127 109 111 132 126 139 139 154 147
246 231 246 249 247 215 214 214 224 241 227 243 268 289 294 179 189 183 177 176 176 174 175 177 177 180 182 182 181 178 175 175 174 173 170 156 134 110 126 141 131 141 147 154
236 215 222 246 216 219 220 216 216 221 237 248 246 268 242 243 207 202 188 181 180 179 179 179 179 181 183 180 179 178 177 177 176 176 176 165 160 144 139 137 142 141 150 157
232 197 212 94 44 208 207 215 217 231 239 235 240 270 264 262 252 204 197 189 185 181 181 180 177 181 181 179 179 178 179 180 179 176 177 173 157 155 134 147 143 160 168 162
223 204 199 113 34 348 187 113 16 310 293 291 290 309 280 265 261 228 209 199 192 188 180 177 176 181 181 179 180 181 183 183 182 177 175 174 165 156 147 145 145 140 167 173
267 203 212 53 2 322 283 167 23 345 326 323 308 246 228 20 12 295 221 195 190 185 182 179 177 179 182 181 181 184 186 183 182 179 178 176 171 160 151 141 130 129 161 167
244 258 83 355 335 226 211 77 350 344 334 316 281 279 312 319 318 315 271 206 194 184 183 181 178 178 183 185 185 185 184 182 182 180 180 180 176 167 156 137 131 118 124 147
226 254 191 359 31 317 22 346 349 342 333 318 300 300 298 300 296 285 274 205 197 189 184 182 181 181 184 188 184 183 183 183 183 182 179 183 182 172 161 154 135 134 136 152
328 39 23 7 62 42 10 345 350 338 334 324 312 311 308 299 290 272 240 210 197 194 190 182 184 185 186 187 183 182 184 184 185 183 182 186 184 179 171 164 158 146 144 147
287 47 351 319 26 8 0 346 340 338 332 330 320 318 312 304 292 272 227 206 195 191 197 187 187 188 189 184 182 184 184 184 186 186 185 188 188 190 185 180 178 170 164 162
294 19 358 305 291 326 332 331 336 336 337 334 327 324 318 306 291 271 223 203 195 195 197 198 187 187 186 185 182 184 186 186 187 189 189 192 190 195 194 196 187 185 180 174
330 325 319 292 303 310 318 322 329 331 333 335 334 330 327 316 300 274 225 206 201 198 199 200 195 186 186 187 185 184 185 188 191 190 193 195 195 200 198 199 202 187 188 178
300 306 298 295 299 300 306 316 320 322 324 329 337 338 336 326 313 282 234 213 208 204 201 198 197 191 188 189 189 189 186 189 192 190 196 195 197 200 202 206 208 203 198 190
311 299 291 287 302 297 303 307 312 313 315 330 336 343 345 340 330 306 243 220 215 211 204 198 198 199 192 190 192 192 193 194 189 190 197 197 199 200 200 203 204 206 203 200
292 290 287 288 289 288 292 295 303 306 315 330 338 345 350 351 346 334 282 223 212 207 203 201 201 200 197 193 194 193 194 196 194 195 199 198 199 199 199 201 203 205 205 206
298 293 282 281 283 284 284 284 289 298 308 323 334 342 348 352 356 350 340 230 212 207 204 202 201 198 196 194 195 195 197 199 195 197 199 200 201 200 200 200 201 202 206 210
324 318 295 282 282 281 279 278 282 287 297 309 323 335 345 352 360 7 4 339 219 214 211 210 209 202 200 194 197 195 196 201 202 198 200 203 203 205 204 204 205 206 209 209
343 336 313 293 277 280 276 273 275 281 286 298 311 326 339 348 352 357 1 1 329 221 217 213 207 201 204 200 198 194 194 197 202 200 203 205 206 207 208 209 210 211 211 214
347 347 335 321 293 274 271 263 269 277 283 293 302 316 326 337 345 353 358 8 22 81 204 213 213 200 205 204 203 195 198 196 201 200 205 207 207 208 210 212 213 213 213 212
348 350 347 340 321 283 266 255 267 276 284 291 299 309 313 325 338 347 355 5 14 357 335 262 224 209 207 209 212 199 204 202 204 201 203 207 208 209 212 214 216 216 216 216
350 356 354 353 354 338 281 266 276 279 289 293 301 307 308 311 321 332 345 348 350 344 350 360 241 216 213 212 220 205 208 206 207 207 206 206 209 211 213 216 218 218 220 221
4 7 7 3 7 21 23 20 324 317 309 296 286 297 309 306 306 310 335 338 342 345 352 351 347 221 204 218 217 211 210 213 211 211 212 213 210 212 213 215 218 221 222 224
11 13 11 11 7 8 21 21 11 349 340 317 305 303 296 290 299 299 307 329 349 349 347 346 334 309 234 219 219 215 209 214 212 209 211 215 218 220 223 217 221 221 224 225
10 10 11 14 17 17 14 6 10 3 354 350 339 330 323 314 303 291 297 313 317 341 350 328 333 329 299 226 223 217 209 213 213 208 203 207 214 214 218 229 230 226 225 225
359 11 18 12 14 17 27 24 11 5 1 1 353 340 339 334 314 295 297 305 307 306 322 337 327 316 330 287 225 211 206 202 199 192 190 185 189 208 222 233 241 241 235 226
360 5 12 18 18 18 14 10 13 10 5 358 349 344 340 326 307 309 300 295 297 297 306 310 317 304 283 298 249 224 213 214 205 200 208 230 234 257 266 247 260 258 245 235
1 4 10 14 19 19 19 17 18 12 10 7 353 344 335 324 315 307 301 297 285 283 287 292 300 303 285 256 252 246 241 234 234 236 231 234 231 228 234 253 278 256 251 240